Weather History for Air Force Academy, CO

Change the Weather History Date:

Wednesday, October 10, 2012

  Actual Average Record
Temperature  
Mean Temperature 48 °F -  
Max Temperature 60 °F 63 °F 77 °F (2003)
Min Temperature 37 °F 35 °F 26 °F (2001)
Degree Days  
Heating Degree Days 16    
Moisture  
Dew Point 33 °F    
Average Humidity 67    
Maximum Humidity 87    
Minimum Humidity 38    
Precipitation  
Precipitation 0.00 in - - ()
Sea Level Pressure  
Sea Level Pressure 30.03 in    
Wind  
Wind Speed 8 mph (SSE)    
Max Wind Speed 13 mph    
Max Gust Speed -    
Visibility 10 miles    
Events      
Averages and records for this station are not official NWS values.
T = Trace of Precipitation, MM = Missing Value Source: NWS Daily Summary

Daily Weather History Graph

Daily Weather History Graph

Search for Another Location

Airport:

Trip Planner

Search our weather history database for the weather conditions in past years. The results will help you decide how hot, cold, wet, or windy it might be!

Date:

Astronomy

Oct. 10, 2012 Rise Set
Actual Time 7:04 AM MDT 6:27 PM MDT
Civil Twilight 6:37 AM MDT 6:53 PM MDT
Nautical Twilight 6:06 AM MDT 7:24 PM MDT
Astronomical Twilight 5:35 AM MDT 7:55 PM MDT
Moon 1:45 AM MDT (10/10) 3:29 PM MDT (10/10)
Length of Visible Light 12h 16m
Length of Day
11h 22m
Waning Crescent, 26% of the Moon is Illuminated
Oct 10
Waning Crescent
Oct 15
New
Oct 21
First Quarter
Oct 29
Full
Nov 6
Last Quarter

Hourly Weather History & Observations

Time (MDT) Temp. Windchill Dew Point Humidity Pressure Visibility Wind Dir Wind Speed Gust Speed Precip Events Conditions
12:55 AM 37.9 °F 30.5 °F 32.7 °F 81% 30.03 in 10.0 mi SSE 11.5 mph - N/A   Overcast
1:55 AM 37.6 °F 29.6 °F 32.5 °F 82% 30.00 in 10.0 mi SSE 12.7 mph - N/A   Overcast
2:55 AM 37.8 °F 30.7 °F 32.7 °F 82% 29.99 in 10.0 mi South 10.4 mph - N/A   Overcast
3:55 AM 37.8 °F 30.7 °F 32.4 °F 81% 30.01 in 10.0 mi South 10.4 mph - N/A   Overcast
4:55 AM 37.4 °F 30.8 °F 32.5 °F 83% 30.04 in 10.0 mi SE 9.2 mph - N/A   Overcast
5:55 AM 37.4 °F 32.1 °F 32.4 °F 82% 30.09 in 10.0 mi South 6.9 mph - N/A   Overcast
6:55 AM 37.0 °F 32.4 °F 32.5 °F 84% 30.15 in 10.0 mi South 5.8 mph - N/A   Overcast
7:55 AM 37.4 °F 32.8 °F 32.7 °F 83% 30.15 in 10.0 mi SE 5.8 mph - N/A   Overcast
7:57 AM 37.4 °F 33.8 °F 32.0 °F 81% 30.16 in 10.0 mi Variable 4.6 mph - N/A   Overcast
8:00 AM 37.4 °F 33.8 °F 33.8 °F 87% 30.15 in 10.0 mi SSE 4.6 mph - N/A   Overcast
8:35 AM 39.2 °F 35.9 °F 32.0 °F 75% 30.16 in 7.0 mi South 4.6 mph - N/A   Overcast
8:55 AM 39.2 °F 35.0 °F 32.4 °F 76% 30.16 in 10.0 mi SSW 5.8 mph - N/A   Mostly Cloudy
9:08 AM 39.2 °F 35.9 °F 32.0 °F 75% 30.21 in 10.0 mi Variable 4.6 mph - N/A   Mostly Cloudy
10:55 AM 46.9 °F - 32.4 °F 57% 30.07 in 10.0 mi SSE 5.8 mph - N/A   Clear
11:55 AM 48.6 °F - 33.4 °F 56% 30.06 in 10.0 mi SSE 6.9 mph - N/A   Partly Cloudy
12:55 PM 52.7 °F - 33.8 °F 49% 30.00 in 10.0 mi ESE 4.6 mph - N/A   Partly Cloudy
1:55 PM 58.6 °F - 34.2 °F 40% 29.91 in 10.0 mi South 9.2 mph - N/A   Clear
2:55 PM 58.6 °F - 34.7 °F 41% 29.88 in 10.0 mi SSE 9.2 mph - N/A   Clear
3:55 PM 60.1 °F - 34.5 °F 38% 29.86 in 10.0 mi SSE 10.4 mph - N/A   Clear
4:55 PM 60.3 °F - 34.3 °F 38% 29.86 in 10.0 mi SSE 5.8 mph - N/A   Clear
5:55 PM 56.5 °F - 34.9 °F 44% 29.90 in 10.0 mi SSW 5.8 mph - N/A   Scattered Clouds
6:55 PM 53.2 °F - 33.8 °F 48% 29.94 in 10.0 mi SW 3.5 mph - N/A   Clear
7:55 PM 47.5 °F - 35.4 °F 63% 29.98 in 10.0 mi North 4.6 mph - N/A   Clear
8:55 PM 42.8 °F 37.5 °F 34.3 °F 72% 30.01 in 10.0 mi North 9.2 mph - N/A   Scattered Clouds
9:55 PM 41.9 °F 36.9 °F 32.5 °F 69% 29.99 in 10.0 mi North 8.1 mph - N/A   Clear
10:55 PM 40.6 °F 35.4 °F 32.2 °F 72% 29.99 in 10.0 mi North 8.1 mph - N/A   Clear
11:55 PM 39.0 °F 32.3 °F 32.0 °F 76% 29.95 in 10.0 mi North 10.4 mph - N/A   Clear